STARLINK-32194 (60315 NORAD) Tracking and Keplerian Element Data

This shows tracking and keplerian element data for the satellite.

Feedback or suggestion? Click here.




ElementValue
Catalog60315
NameSTARLINK-32194
Epoch Orbit1299
Epoch Day286.66592616
Epoch Year2024
RAAN167.139
Inclination53.1581
Eccentricity6.24E-05
Argument of Perigee135.3075
Mean Anonmoly224.798
Mean Motion15.39661049
Decay Rate0.00074029
L11 60315U 24133Q 24286.66592616 .00074029 00000+0 18403-2 0 9990
L22 60315 53.1581 167.1390 0000624 135.3075 224.7980 15.39661049 12990



Live tracking and technical data element details for STARLINK-32194 (NORAD 60315). STARLINK-32194 can be tracked NOW for your location showing map with azimuth and elevation plus other details from your city location.







IsCatalogInMostPopularTable: catalog: 60315, numindb: 9
Update: records affected: 1



GetName: 60315 STARLINK-32194

Hit Count: updated at: Tue, 03 Dec 2024 02:36:22 GMT